Regional Weather Roundup
Issued by NWS

Home | Current Version | Previous Version | Graphics & Text | Print | Product List | Glossary On
Versions: 1 2 3 4 5 6 7 8 9 10 11 12 13 14 15 16 17 18 19 20 21 22 23 24 25 26 27 28 29 30 31 32 33 34 35 36 37 38 39 40 41 42 43 44 45 46 47 48 49 50
000
ASUS43 KIND 010709
RWRIN

WEATHER ROUNDUP FOR INDIANA
NATIONAL WEATHER SERVICE INDIANAPOLIS IN
200 AM EST SUN FEB 01 2015

NOTE: "FAIR" INDICATES FEW OR NO CLOUDS BELOW 12,000 FEET WITH NO
SIGNIFICANT WEATHER AND/OR OBSTRUCTIONS TO VISIBILITY.

* - STATION DOES NOT REPORT WEATHER SUCH AS PRECIPITATION OR FOG.

+ - STATION NOT QUALITY CONTROLLED BY THE NATIONAL WEATHER SERVICE.
    USE DATA WITH CAUTION...ESPECIALLY DEWPOINT AND RELATIVE
    HUMIDITY OBSERVATIONS.

INZ001>003-010>013-019-020-010800-
NORTHWEST INDIANA

CITY           SKY/WX    TMP DP  RH WIND       PRES   REMARKS
GARY /AIRPORT/ LGT SNOW  33  31  91 CALM      30.13F VSB 1
KNOX *+        CLOUDY    32  28  86 CALM      30.13F VSB 3/4
LA PORTE +     LGT SNOW  34  34 100 CALM      30.14F
MICHIGAN CITY+ LGT SNOW  32  30  93 CALM      30.14F
MONTICELLO +   LGT SNOW  32  32 100 S3        30.14F
RENSSELAER +   LGT SNOW  32  32 100 S3        30.13F VSB 1
VALPARAISO     LGT SNOW  32  31  96 S5        30.13F VSB 1   WCI  27

$$

LMZ046-743>745-010800-
SOUTHERN LAKE MICHIGAN

STATION/POSITION TIME  TEMP WIND        PRES
                       AIR  DIR/SP/G
                 (UTC) (F)  (DEG/KT/KT) (MB)
MICHIGAN CITY    0700   30   50/  6/  7   N/A

$$

INZ004-005-014>016-021>024-010800-
NORTH CENTRAL INDIANA

CITY           SKY/WX    TMP DP  RH WIND       PRES   REMARKS
GOSHEN         LGT SNOW  33  31  92 S5        30.14F VSB 1   WCI  29
LOGANSPORT +   LGT RAIN  32  32 100 S6        30.15F WCI  26
PERU/GRISSOM   LGT RAIN  32  32 100 S6        30.13F FOG     WCI  26
ROCHESTER +    LGT SNOW  34  34 100 S3        30.14F
SOUTH BEND     LGT SNOW  31  29  92 NE5       30.14F FOG     WCI  26
WARSAW +       LGT SNOW  32  32 100 CALM      30.14F

$$

INZ006>009-017-018-025>027-010800-
NORTHEAST INDIANA

CITY           SKY/WX    TMP DP  RH WIND       PRES   REMARKS
ANGOLA *+      CLOUDY    30  30 100 CALM      30.14S
AUBURN +       LGT SNOW  32  32 100 CALM      30.16S
FORT WAYNE     LGT SNOW  32  31  96 SW8       30.16F FOG     WCI  25
HUNTINGTON +   LGT SNOW  32  29  89 SW3       30.15F

$$

INZ028-029-035-036-043>045-051>053-010800-
WEST CENTRAL INDIANA

CITY           SKY/WX    TMP DP  RH WIND       PRES   REMARKS
CRAWFORDSVL +  CLOUDY    31  29  92 E8        30.10F FOG     WCI  23
GREENCASTLE +  CLOUDY    32  30  93 E8        30.12F FOG     WCI  25
LAFAYETTE      MIX PCPN  32  32 100 S3        30.13F FOG
TERRE HAUTE    CLOUDY    33  30  88 E6        30.11F WCI  28

$$

INZ030>032-037>040-046>048-054>057-064-065-010800-
CENTRAL INDIANA

CITY           SKY/WX    TMP DP  RH WIND       PRES   REMARKS
CP ATTERBURY + CLOUDY    32  32 100 CALM      30.16F FOG
FRANKFORT +    LGT RAIN N/A N/A N/A SE5       30.14F
GREENWOOD *+   CLOUDY    32  28  86 E5        30.15F WCI  27
INDIANAPOLIS   CLOUDY    30  30 100 E3        30.14F FOG
-EAGLE CREEK   CLOUDY    31  31 100 SE3       30.15F FOG
KOKOMO *+      CLOUDY    34  30  86 S9        30.15F WCI  26
MARION +       MIX PCPN  32  32 100 S5        30.15F WCI  27
MT COMFORT *+  CLOUDY    32 N/A N/A E5        30.15F WCI  27
SHELBYVILLE    CLOUDY    34  31  88 E6        30.15F FOG     WCI  29
ZIONSVILLE +   DRIZZLE   32  30  92 SE5       30.15F WCI  28

$$

INZ033-034-041-042-049-050-058-059-010800-
EAST CENTRAL INDIANA

CITY           SKY/WX    TMP DP  RH WIND       PRES   REMARKS
MUNCIE         FRZ RAIN  32  31  96 S3        30.15F FOG

$$

INZ060-061-067>069-081>083-085>088-010800-
SOUTHWEST INDIANA

CITY           SKY/WX    TMP DP  RH WIND       PRES   REMARKS
EVANSVILLE     CLOUDY    39  25  57 N6        30.12R
HUNTINGBURG *+ CLOUDY    37  21  52 SE7       30.09F
WASHINGTON +   CLOUDY    34  25  68 CALM      30.11F

$$

INZ062-063-066-070>080-084-089>092-010800-
SOUTH CENTRAL AND SOUTHEAST INDIANA

CITY           SKY/WX    TMP DP  RH WIND       PRES   REMARKS
BLOOMINGTON    CLOUDY    33  28  81 E9        30.11F WCI  25
NORTH VERNON + CLOUDY    34  34 100 CALM      30.17F
SEYMOUR +      CLOUDY    34  28  80 CALM      30.17F

$$




USA.gov is the U.S. government's official web portal to all federal, state and local government web resources and services.